STARLINK-11363, 62012

Orbit data source: Space-Track

STARLINK-11363, 62012 is a payload satellite owned by SpaceX/Seattle (US) in LEO that was launched on Mon, 18 Nov 2024 UTC via an FALCON 9 launch vehicle from the Air Force Western Test Range (AFWTR). Payload-class satellites include a variety of spacecraft equipped with specific instruments for various scientific and technological missions. These include communications satellites like Starlink; space stations such as the ISS; scientific satellites like the Hubble; Earth observation satellites from companies like Planet Labs, Umbra, and HawkEye 360; GPS; miniature CubeSats for education and research; and military/defense satellites.

Loading next visibility...
Identifier
62012, 2024-213E
Orbit
LEO
Last TLE update
1 day ago
Origin
Manufacturer
SpaceX/Seattle
Mission
Operational Commercial Communications
Bus & Motor
STARLINK V2M, Unknown motor
Mass
730 kg wet, ~700 kg dry
Launch date (UTC)
2024-11-18 (6 months ago)
Launch vehicle
FALCON 9
Launch site
Air Force Western Test Range (AFWTR)
Object type
Payload
Rocket body
Debris
Shape & HBR
Box + 2 Pan, 29 m
Radar Cross Section
36.964 m², Large (>1 m²)

Expand to show TLE details & history

TLE from 1 day ago
0 STARLINK-11363
1 62012U 24213E   25128.31681511 -.00000229  00000-0  29747-5 0  9995
2 62012  53.1590 106.5855 0001322  98.8907 261.2261 15.69703748 26957
Epoch: 2025-05-08T07:36Z
Definitive object data (Epoch: 2025-05-08T07:36:12.825Z)
Latitude
0.00001°
Longitude
126.14302°
Altitude
360.796 km
Speed
7.694 km/s
True Right ascension
07h 06m 20s
True Declination
0° 00' 00"
Sunlit
Object was in daylight at TLE epoch
Visualization TLE readout
Latitude
-39.58274°
Longitude
-20.74786°
Altitude
373.308 km
Speed
7.685 km/s
Apparent Right ascension
00h 21m 28s
Apparent Declination
-50° 45' 60"
Sunlit
Object is in daylight
Visualization observer readout
Local Sidereal Time
15:39:38
Azimuth
124.499° SE
Elevation
-54.272°
Doppler factor
1
Orbital elements
Apogee altitude
360.896 km
Perigee altitude
359.115 km
Semi-major axis
6,738.142 km
Eccentricity
0.0001322
Inclination
53.159°
RAAN
106.5855°
Arg. of periapsis
98.8907°
True anomaly
261.21113°
Mean anomaly
261.2261°
Eccentric anomaly
261.21861°
Mean motion
3.92404 °/min
BSTAR
0.0000029747
Orbital period
91.74 mins
Loading maneuver chart data...
Loading SW <> Apogee altitude chart data...
Loading historical data...
Loading historical data...
Loading historical data...
Loading historical data...
Loading historical data...
Loading historical data...
Loading historical data...

STARLINK-11363 Visibility forecast

Observer location: undefined°, undefined°

Span
Click to sort rows by Start time (UTC) header in descending order
Start Az.
Max El. time (UTC)
Max El. Az.
Max El.
End time (UTC)
End Az.
4 mins2025-05-09 08:34:38.231Z285.838° WNW2025-05-09 08:36:38.231Z226.619° WSW28.614°2025-05-09 08:38:38.231Z166.588° S
|